Starlink 30539

operational
NORAD ID: 58004 Int'l Des: 2023-153 Owner: SPXS Country: US Constellation: starlink
LEOCIRCULAR

About Starlink 30539

Description loading...

Live Position

Loading 3D Globe...

Upcoming Passes

Altitude History

Altitude vs Time

uPlot chart will show altitude changes over time

Two-Line Element Set

1 58004U 23153P 25303.69904191 .00001331 00000-0 11359-3 0 9993
2 58004 43.0045 54.9755 0001259 264.6547 95.4152 15.02532022115321
Epoch: Oct 30, 2025 • Age: 11 hours

Current Status

Altitude 559.5 km
Velocity 7.58 km/s
Sub-Earth Point -4.78°S, 51.09°W
Launch Date Oct 5, 2023
Age 2 years
Type internet

Technical Details

Classification Payload
Mass 730.00 kg
Dry Mass 700.00 kg
Total Mass 730.00 kg
Length 0.30 m
Diameter 4.10 m
Span 29.00 m
Shape Box + pan
Manufacturer SPXS
Bus Type Starlink V2M
Phase Status In Orbit
Owner/State SPXS/US

Large Constellations

Loading constellations...